Baku, Azerbaijan

10:39 PM +04 on December 13, 2018 (GMT +0400)
Bina

Weather History for UBBB - March, 2018

Change the Weather History Date:

Tuesday, March 27, 2018

  Actual Average Record
Temperature  
Mean Temperature 50 °F -  
Max Temperature 60 °F - - ()
Min Temperature 41 °F - - ()
Degree Days  
Heating Degree Days 14    
Moisture  
Dew Point 44 °F    
Average Humidity 79    
Maximum Humidity 93    
Minimum Humidity 63    
Precipitation  
Precipitation 0.00 in - - ()
Sea Level Pressure  
Sea Level Pressure 29.99 in    
Wind  
Wind Speed 9 mph ()    
Max Wind Speed 25 mph    
Max Gust Speed 24 mph    
Visibility 6.1 miles    
Events      
T = Trace of Precipitation, MM = Missing Value Source: Averaged Metar Reports

Daily Weather History Graph

Daily Weather History Graph

Search for Another Location

Airport or City:

Astronomy

Mar. 27, 2018 Rise Set
Actual Time 6:32 AM +04 6:58 PM +04
Civil Twilight 6:04 AM +04 7:26 PM +04
Nautical Twilight 5:32 AM +04 7:58 PM +04
Astronomical Twilight 4:59 AM +04 8:31 PM +04
Moon 2:25 PM +04 (3/27) 4:03 AM +04 (3/27)
Length of Visible Light 13h 21m
Length of Day
12h 26m
Waxing Gibbous, 79% of the Moon is Illuminated
Mar 27
Waxing Gibbous
Mar 31
Full
Apr 8
Last Quarter
Apr 16
New
Apr 23
First Quarter

Hourly Weather History & Observations

Time (+04) Temp. Windchill Dew Point Humidity Pressure Visibility Wind Dir Wind Speed Gust Speed Precip Events Conditions
12:00 AM 44.6 °F 40.7 °F 41.0 °F 87% 30.21 in - NW 6.9 mph - N/A   Clear
12:30 AM 44.6 °F 41.4 °F 41.0 °F 87% 30.18 in - NW 5.8 mph - N/A   Clear
1:00 AM 43 °F - 40 °F 84% 30.19 in 6 mi NW 2.2 mph - -  
1:00 AM 42.8 °F 39.3 °F 41.0 °F 93% 30.18 in - NW 5.8 mph - N/A   Clear
1:30 AM 42.8 °F 40.1 °F 41.0 °F 93% 30.15 in - WNW 4.6 mph - N/A   Clear
2:00 AM 42.8 °F 41.1 °F 41.0 °F 93% 30.15 in - WNW 3.5 mph - N/A   Clear
2:30 AM 42.8 °F 41.1 °F 41.0 °F 93% 30.12 in - West 3.5 mph - N/A   Clear
3:00 AM 42.8 °F - 41.0 °F 93% 30.12 in - South 1.2 mph - N/A   Clear
3:30 AM 42.8 °F - 39.2 °F 87% 30.09 in - East 2.3 mph - N/A   Clear
4:00 AM 41 °F - 39 °F 89% 30.10 in 6 mi ENE 2.2 mph - -  
4:00 AM 41.0 °F 37.1 °F 37.4 °F 87% 30.09 in - ESE 5.8 mph - N/A   Clear
4:30 AM 41.0 °F 35.8 °F 37.4 °F 87% 30.09 in - South 8.1 mph - N/A   Clear
5:00 AM 41.0 °F 35.2 °F 37.4 °F 87% 30.06 in - SSE 9.2 mph - N/A   Clear
5:30 AM 42.8 °F 38.6 °F 39.2 °F 87% 30.06 in - SSE 6.9 mph - N/A   Clear
6:00 AM 44.6 °F 39.2 °F 41.0 °F 87% 30.06 in - SSE 10.4 mph - N/A   Clear
6:30 AM 44.6 °F 38.4 °F 41.0 °F 87% 30.06 in - SSE 12.7 mph - N/A   Clear
7:00 AM 46 °F - 42 °F 79% 30.06 in 6 mi SSE 13.4 mph - -  
7:00 AM 46.4 °F 39.5 °F 42.8 °F 87% 30.06 in - SSE 17.3 mph - N/A   Clear
7:30 AM 48.2 °F - 42.8 °F 82% 30.04 in - SSE 15.0 mph - N/A   Clear
8:00 AM 50.0 °F - 44.6 °F 82% 30.06 in - SSE 18.4 mph - N/A   Clear
9:00 AM 51.8 °F - 44.6 °F 76% 30.04 in - South 20.7 mph - N/A   Clear
9:30 AM 53.6 °F - 44.6 °F 72% 30.04 in - SSW 17.3 mph - N/A   Clear
10:00 AM 53 °F - 45 °F 67% 30.04 in 6 mi SE 15.7 mph - -   Clear
10:00 AM 55.4 °F - 46.4 °F 72% 30.04 in 6.2 mi SW 12.7 mph - N/A   Mostly Cloudy
10:30 AM 57.2 °F - 46.4 °F 67% 30.01 in 6.2 mi West 11.5 mph - N/A   Mostly Cloudy
11:30 AM 59.0 °F - 46.4 °F 63% 29.98 in - SSW 19.6 mph - N/A   Clear
12:00 PM 59.0 °F - 46.4 °F 63% 29.95 in - SSW 23.0 mph - N/A   Clear
12:30 PM 57.2 °F - 48.2 °F 72% 29.95 in - South 21.9 mph - N/A   Clear
1:00 PM 57 °F - 48 °F 63% 29.94 in 6 mi SSE 24.6 mph - -   Clear
1:00 PM 57.2 °F - 48.2 °F 72% 29.92 in - South 19.6 mph - N/A   Clear
1:30 PM 57.2 °F - 48.2 °F 72% 29.92 in - South 23.0 mph - N/A   Clear
2:00 PM 57.2 °F - 48.2 °F 72% 29.89 in - South 23.0 mph - N/A   Clear
2:30 PM 59.0 °F - 50.0 °F 72% 29.89 in - South 20.7 mph - N/A   Clear
3:00 PM 59.0 °F - 50.0 °F 72% 29.89 in - South 24.2 mph - N/A   Clear
3:30 PM 57.2 °F - 50.0 °F 77% 29.86 in - SSE 23.0 mph - N/A   Clear
4:00 PM 58 °F - 50 °F 66% 29.87 in 6 mi SE 24.6 mph - -   Clear
4:00 PM 59.0 °F - 50.0 °F 72% 29.86 in - SSE 20.7 mph - N/A   Clear
4:30 PM 57.2 °F - 50.0 °F 77% 29.83 in - SSE 18.4 mph - N/A   Clear
5:00 PM 57.2 °F - 48.2 °F 72% 29.83 in - SSE 11.5 mph - N/A   Clear
5:30 PM 59.0 °F - 48.2 °F 67% 29.86 in - South 11.5 mph 24.2 mph N/A   Clear
6:00 PM 57.2 °F - 44.6 °F 63% 29.86 in - South 11.5 mph 23.0 mph N/A   Clear
6:30 PM 53.6 °F - 46.4 °F 77% 29.83 in - SSE 11.5 mph - N/A   Clear
7:00 PM 52 °F - 45 °F 69% 29.86 in 6 mi SSE 8.9 mph - -   Clear
7:00 PM 53.6 °F - 44.6 °F 72% 29.86 in - SSW 10.4 mph - N/A   Clear
7:30 PM 48.2 °F - 42.8 °F 82% 29.92 in 6.2 mi NW 12.7 mph - N/A   Mostly Cloudy
8:00 PM 46.4 °F 42.4 °F 41.0 °F 81% 29.95 in - NW 8.1 mph - N/A   Clear
8:30 PM 46.4 °F 42.4 °F 41.0 °F 81% 29.95 in - NW 8.1 mph - N/A   Clear
9:00 PM 46.4 °F 42.9 °F 41.0 °F 81% 29.95 in - NW 6.9 mph - N/A   Clear
9:30 PM 44.6 °F 41.4 °F 41.0 °F 87% 29.95 in - WNW 5.8 mph - N/A   Clear
10:00 PM 44 °F - 40 °F 79% 29.95 in 6 mi West 4.5 mph - -  
10:00 PM 46.4 °F 42.9 °F 42.8 °F 87% 29.95 in - WNW 6.9 mph - N/A   Clear
10:30 PM 46.4 °F 44.3 °F 41.0 °F 81% 29.95 in - West 4.6 mph - N/A   Clear
11:00 PM 46.4 °F - 41.0 °F 81% 29.92 in - Calm Calm - N/A   Clear
11:30 PM 44.6 °F 43.1 °F 41.0 °F 87% 29.92 in - South 3.5 mph - N/A   Clear